LogoCoinalyze
    Ad-Free Version Inicio Mercados Tasas de Financiamiento
    Datos de futuros
    • Datos agregados (Monedas)
    • Gráficos individuales
    • Gráficos globales
    Alertas
    TA
    Bitcoin Ethereum BNB Ripple Tron ZCash Dogecoin Monero UNUS SED LEO Chainlink Cardano Stellar Lumens Bitcoin Cash Litecoin Hedera Cronos Polkadot Ethereum Classic Algorand Cosmos Quant VeChain Dash Bitcoin SV BitTorrent Terra Decred Tezos Iota The Graph THETA Decentraland NEO Chiliz MultiversX Basic Attention Token Golem Horizen Qtum 0x DigiByte Beam FTX Token RIF Token Holo FUNToken Ontology Zilliqa Nano aelf Siacoin Enjin Coin Ravencoin Mask Network Verge Status WINk Waves IoTeX iExec RLC Power Ledger Steem Kyber Network Crystal Lisk Ark WOO Network Ardor IOST WAX Icon Storj Wanchain Loopring Bitcoin Diamond AdEx Bitcoin Gold Augur OmiseGO NEM MonaCoin BitShares Ren V Systems Komodo Nuls Mithril SOLVE Maker Aion EOS Nebulas HedgeTrade Bread Fetch.ai TomoChain Polygon Fantom Waltonchain GXChain Bytom Metaverse ETP MaidSafeCoin QASH
    Ordenar por:
    Más
    • API
    • Patrones de velas
    • Donar
    • Contacto
    • Mapa del Sitio
    • Privacy Policy
    • Disclaimer
    • Theme:
    Español
    • English
    • Français
    • Русский
    • Deutsch
    • Türkçe
    • Nederlands
    • Português (BR)
    • 한국어
    • 简体中文
    • 日本語
     
    Iniciar sesión / Registrar
    Markets/ Pepe/ PEPE a JPY/ PEPEJPY Binance
    Trades
    WL
    Chat
    Estad.
    Noticias
    ⦷
    AAA
    0.000559 581749.00000000 19:51:30
    0.000559 9673004.00000000 19:51:30
    0.000559 581749.00000000 19:51:30
    0.000559 581749.00000000 19:51:30
    0.000559 581749.00000000 19:51:30
    0.000559 35932557.00000000 19:49:47
    0.000559 562045.00000000 19:49:47
    0.000559 562045.00000000 19:49:47
    0.000561 11458076.00000000 19:49:09
    0.000561 541924.00000000 19:49:09
    0.000559 15600000.00000000 19:47:39
    0.000559 534180.00000000 19:47:22
    0.000560 14629700.00000000 19:45:33
    0.000559 506763.00000000 19:42:17
    0.000560 12000000.00000000 19:42:05
    0.000560 12000000.00000000 19:39:55
    0.000561 507108.00000000 19:32:07
    0.000561 12000000.00000000 19:31:20
    0.000561 506346.00000000 19:30:48
    0.000561 506346.00000000 19:30:48
    0.000561 515190.00000000 19:30:06
    0.000561 515190.00000000 19:30:06
    0.000560 515962.00000000 19:29:34
    0.000560 14562544.00000000 19:29:34
    0.000560 518728.00000000 19:29:34
    0.000560 518728.00000000 19:29:34
    0.000561 551290.00000000 19:27:09
    0.000561 12000000.00000000 19:24:03
    0.000561 12000000.00000000 19:24:03
    0.000562 12000000.00000000 19:23:17
    0.000562 591981.00000000 19:23:17
    0.000562 10224057.00000000 19:23:17
    0.000562 591981.00000000 19:23:17
    0.000562 591981.00000000 19:23:17
    0.000559 180180.00000000 19:15:03
    0.000560 179179.00000000 19:09:32
    0.000560 12000000.00000000 19:09:08
    0.000560 4649143.00000000 19:08:13
    0.000562 12000000.00000000 19:05:05
    0.000562 179000.00000000 19:05:00
    0.000561 12000000.00000000 19:02:07
    0.000561 12000000.00000000 19:00:06
    0.000561 12000000.00000000 18:58:48
    0.000561 11494886.00000000 18:57:46
    0.000561 505114.00000000 18:57:46
    0.000561 12000000.00000000 18:57:21
    0.000561 3146400.00000000 18:55:54
    0.000561 3838700.00000000 18:55:54
    0.000561 495494.00000000 18:55:54
    0.000561 495494.00000000 18:55:54
    0.000561 12000000.00000000 18:55:30
    0.000561 12000000.00000000 18:55:01
    0.000562 12000000.00000000 18:54:19
    0.000561 180000.00000000 18:53:01
    0.000561 648648.00000000 18:52:34
    0.000561 180000.00000000 18:52:34
    0.000559 364000.00000000 18:52:29
    0.000560 182000.00000000 18:51:18
    0.000559 182000.00000000 18:51:00
    0.000556 463140.00000000 18:49:21
    0.000553 12000000.00000000 18:45:50
    0.000554 12000000.00000000 18:45:37
    0.000552 514453.00000000 18:38:49
    0.000552 516133.00000000 18:38:47
    0.000552 516133.00000000 18:38:47
    0.000552 70209499.00000000 18:38:11
    0.000552 12000000.00000000 18:38:11
    0.000555 12830830.00000000 18:28:01
    0.000556 12000000.00000000 18:27:22
    0.000556 12182182.00000000 18:27:22
    0.000557 11474633.00000000 18:21:34
    0.000557 525367.00000000 18:21:34
    0.000557 15046405.00000000 18:19:49
    0.000557 553595.00000000 18:19:49
    0.000557 1149989.00000000 18:10:51
    0.000557 182182.00000000 18:08:45
    0.000558 10765062.00000000 17:59:40
    0.000558 617469.00000000 17:59:40
    0.000558 617469.00000000 17:59:40
    0.000558 11370751.00000000 17:57:22
    0.000558 629249.00000000 17:57:22
    0.000558 182182.00000000 17:56:00
    0.000558 261789185.00000000 17:55:58
    0.000558 392683774.00000000 17:55:58
    0.000558 392683774.00000000 17:55:58
    0.000559 180180.00000000 17:55:56
    0.000559 688718.00000000 17:55:37
    0.000561 1150771.00000000 17:49:12
    0.000559 180180.00000000 17:46:45
    0.000560 179179.00000000 17:46:28
    0.000560 15600000.00000000 17:45:33
    0.000562 179000.00000000 17:34:24
    0.000561 180000.00000000 17:34:10
    0.000561 648648.00000000 17:31:50
    0.000560 182000.00000000 17:27:34
    0.000559 182000.00000000 17:24:04
    0.000560 2600000.00000000 17:23:01
    0.000560 182000.00000000 17:23:01
    0.000559 182000.00000000 17:22:23
    0.000560 716716.00000000 17:20:34
    Desconectar
    AAA
    Ayuda
    🙂 🤣 😎 🤗 😛 😉 😜 🤑 🤔 😑 😴 😕 🙃 😲 😇 🙁 😢 😬 😟 😠 🕺 🏃 💪 ✌ 👌 👍 👎 👏 👋 🤝 🍺 🍻 🐋 🐟 🦈 🗽 🚄 ✈ 🛑 🚀 🏦 🌚 ⭐ 🌞 ⚡ 🏆 💰 💲 🔨 ❓ ❗ 💯 🔶 🏁
    ☺
    Iniciar sesión o Registrar y chatea
    24 Horas
    Variación
    -1.88%
    Volumen
    5,897,686,624
    Máx.
    0.000574
    Mín.
    0.000552
    7 Días
    Variación
    -13.08%
    Volumen
    102,362,404,325
    Máx.
    0.000685
    Mín.
    0.000541
    30 Días
    Variación
    +27.72%
    Volumen
    698,943,041,091
    Máx.
    0.000723
    Mín.
    0.000405
    Pepe price rallies 25% as whale demand and futures interest surge
    Key takeaways Pepe has gained 25% this week, including a combined 22% advance over the previous two days. Seven whale transactions worth more than $1 million each occurred Thursday, the highest...
    coinjournal.net
    Aug 21, 2026 08:41
    PEPE Supply on Exchanges Just Took a Massive Hit – What’s Next?
    A drop in PEPE exchange balances has added to bullish expectations despite muted trader interest.
    cryptopotato.com
    Aug 6, 2026 20:02
    PEPE Exchange Outflows Hit Nearly 2-Year High as Whales Accumulate
    Pepe (PEPE) recorded its largest single-day exchange outflow since November 2024, with 4.54 trillion tokens leaving trading platforms, signaling that holders are moving supply away from immediate...
    beincrypto.com
    Aug 6, 2026 04:57
    Meme Coin Based on White House Shooter Conspiracy Rallies 320%
    $HENRY surged 300% after a 2023 Pepe tweet appeared to name the White House shooter, fueling a viral time-travel meme. The post Meme Coin Based on White House Shooter Conspiracy Rallies 320%...
    beincrypto.com
    Apr 27, 2026 16:11
    PEPE surges 4% as market sentiment improves, eyes Key resistance breakout
    Key takeaways Pepe extends gains on Wednesday, stretching its rally from the 50-day EMA. Derivatives data show heightened retail activity as risk-on sentiment returns to the market. Pepe (PEPE) is...
    coinjournal.net
    Apr 22, 2026 11:44
    Why The PEPE Price Could Stage A 55X Rally To Reach New $0.0001 ATH
    The PEPE price has now started to edge back into bullish conversations after the recent inflows into the crypto market. The last time PEPE’s weekly chart printed the kind of structure now...
    newsbtc.com
    Apr 21, 2026 15:30
    Pepe (PEPE) surges 9%, drawing interest from whales
    Key takeaways PEPE is up 9% in the last 24 hours, making it one of the best performers among the top 50 cryptocurrencies by market cap. The rally comes amid renewed interest from whales and retail...
    coinjournal.net
    Apr 16, 2026 07:40
    Murad Says SPX6900 (SPX) Is Primed for a Rally — Is He Right This Time?
    Crypto influencer Murad Mahmudov claims SPX6900 (SPX) is stabilizing at the same market cap level where Dogecoin (DOGE) and Pepe (PEPE) consolidated before their explosive rallies. The...
    beincrypto.com
    Apr 5, 2026 21:36
    The Shiba Inu Of This Cycle: Analyst Shares Why It Is Better To Buy PEPE Now
    In the bull market cycle of 2021-2022, the Shiba Inu meme coin made waves in a way that changed the face of meme coins forever. This came after Dogecoin’s initial 36,000% rally, and Shiba Inu...
    newsbtc.com
    Apr 4, 2026 07:30
    PEPE Explodes by 18% Amid Altcoin Rally, BTC Tapped $74K: Market Watch
    The frog-themed meme coin is today's biggest gainer, followed by TAO, DOT, and BONK.
    cryptopotato.com
    Mar 16, 2026 10:56
    Should PEPE traders brace for volatility as short squeeze potential builds?
    The memecoin market has seen its collective market capitalization drop by 48% over the past year, and 6.9% over the past month, according to CoinMarketCap. According to Glassnode, the memecoin...
    ambcrypto.com
    Mar 7, 2026 18:00
    Simplemente teclea el comando en el chat. Sustituir nick1 por el apodo real.
    • /ignore nick1 Ignorar un usuario del chat
    • /unignore nick1 Dejar de ignorar un usuario del chat
    • /ignorelist Mostrar usuarios del chat que has ignorado